Location: Powder Track
(41.8531°N, 72.3584°W)
Time: 23:00:24
(UTC+00:00)

Vanguard 2 Rocket - Pass Details

Date: 07 August 2021
Orbit: 556 x 3324 km, 32.9° (Epoch: 22 September)

Event Time Altitude Azimuth Distance (km) Brightness Sun altitude
Rises 12:51:43 0° 256° (WSW) 3,015 9.1 32.3°
Reaches altitude 10° 12:54:35 10° 241° (WSW) 1,926 8.3 32.9°
Maximum altitude 12:57:50 22° 189° (S) 1,227 7.8 33.5°
Drops below altitude 10° 13:00:59 10° 136° (SE) 1,853 9.4 34.0°
Sets 13:03:41 0° 120° (ESE) 2,865 10.4 34.5°
